Location: Barcelona
(41.3830°N, 2.1830°E)
Time: 05:20:43
(UTC+01:00)

ISS - Pass Details

Date: 22 November 2020
Orbit: 418 x 420 km, 51.6° (Epoch: 04 December)

Event Time Altitude Azimuth Distance (km) Brightness Sun altitude
Rises 19:40:11 0° 264° (W) 2,356 1.5 -24.8°
Reaches altitude 10° 19:42:29 10° 277° (W) 1,494 0.0 -25.2°
Enters shadow 19:44:24 23° 307° (NW) 946 -1.5 -25.6°
